Location: Newark
(16.3678°N, 77.8722°E)
Time: 19:34:44
(UTC+00:00)

Vanguard 2 - All Passes

Search period start: 05 December 2019 00:00
Search period end: 15 December 2019 00:00
Orbit: 553 x 2938 km, 32.9° (Epoch: 05 December)

Date Brightness Start Highest point End Pass type
(mag) Time Alt. Az. Time Alt. Az. Time Alt. Az.
05 Dec - 00:27:23 10° WNW 00:43:17 40° N 00:54:58 10° ENE visible
05 Dec - 02:43:23 10° NW 02:57:17 49° NNE 03:05:52 10° E daylight
05 Dec - 04:57:14 10° WNW 05:08:03 70° SW 05:14:21 10° SE daylight
05 Dec - 16:06:44 10° SE 16:09:25 11° SE 16:12:19 10° ESE visible
05 Dec - 18:07:21 10° SSW 18:19:31 48° SE 18:35:57 10° ENE visible
05 Dec - 20:16:17 10° WSW 20:31:53 80° NNW 20:49:54 10° ENE visible
05 Dec - 22:29:54 10° W 22:46:48 48° NNW 23:01:53 10° ENE visible
06 Dec - 00:46:32 10° WNW 01:02:21 41° N 01:13:38 10° ENE daylight
06 Dec - 03:01:49 10° NW 03:15:52 60° NNE 03:24:16 10° E daylight
06 Dec - 05:15:50 10° WNW 05:25:48 48° SW 05:31:53 10° SSE daylight
06 Dec - 16:20:16 10° S 16:27:14 18° SE 16:35:58 10° E visible
06 Dec - 18:24:44 10° SW 18:37:23 62° SE 18:54:47 10° ENE visible
06 Dec - 20:34:41 10° WSW 20:50:24 68° NNW 21:08:09 10° ENE visible
06 Dec - 22:49:06 10° WNW 23:05:50 45° N 23:20:23 10° ENE visible
07 Dec - 01:05:27 10° WNW 01:21:20 44° N 01:32:21 10° ENE daylight
07 Dec - 03:20:10 10° WNW 03:34:15 75° NNE 03:42:27 10° ESE daylight
07 Dec - 05:34:48 10° WNW 05:43:23 31° SW 05:49:01 10° SSE daylight
07 Dec - 16:36:14 10° S 16:44:54 27° SE 16:56:44 10° E visible
07 Dec - 18:42:23 10° SW 18:55:23 77° SE 19:13:21 10° ENE visible
07 Dec - 20:53:20 10° W 21:09:06 59° NNW 21:26:27 10° ENE visible
07 Dec - 23:08:20 10° WNW 23:24:58 43° N 23:39:02 10° ENE visible
08 Dec - 01:24:09 10° WNW 01:40:14 50° NNE 01:51:01 10° E daylight
08 Dec - 03:38:33 10° WNW 03:52:24 85° SSW 04:00:26 10° SE daylight
08 Dec - 05:54:26 10° W 06:00:51 20° SW 06:05:35 10° S daylight
08 Dec - 16:52:55 10° SSW 17:02:32 37° SE 17:16:27 10° ENE visible
08 Dec - 19:00:20 10° WSW 19:13:33 87° NNW 19:31:44 10° ENE visible
08 Dec - 21:12:11 10° W 21:27:59 52° NNW 21:44:52 10° ENE visible
08 Dec - 23:27:27 10° WNW 23:44:09 43° N 23:57:48 10° ENE visible
09 Dec - 01:42:42 10° WNW 01:58:59 58° NNE 02:09:33 10° E daylight
09 Dec - 03:57:04 10° WNW 04:10:20 64° SW 04:18:10 10° SE daylight
09 Dec - 06:15:53 10° WSW 06:18:20 11° SW 06:20:30 10° SSW daylight
09 Dec - 17:10:03 10° SSW 17:20:12 50° SE 17:35:35 10° ENE visible
09 Dec - 19:18:30 10° WSW 19:31:57 74° NNW 19:50:04 10° ENE visible
09 Dec - 21:31:11 10° W 21:47:01 47° N 22:03:25 10° ENE visible
09 Dec - 23:46:24 10° WNW 00:03:17 45° N 00:16:38 10° ENE visible
10 Dec - 02:01:06 10° WNW 02:17:33 69° NNE 02:27:55 10° ESE daylight
10 Dec - 04:15:49 10° WNW 04:28:03 46° SW 04:35:35 10° SSE daylight
10 Dec - 15:23:20 10° SSE 15:28:52 17° SE 15:35:56 10° E visible
10 Dec - 17:27:30 10° SW 17:38:00 66° SE 17:54:21 10° ENE night (unlit)
10 Dec - 19:36:56 10° WSW 19:50:33 63° NNW 20:08:26 10° ENE visible
10 Dec - 21:50:14 10° WNW 22:06:11 45° N 22:22:09 10° ENE visible
11 Dec - 00:05:11 10° WNW 00:22:19 49° NNE 00:35:27 10° E visible
11 Dec - 02:19:29 10° WNW 02:35:54 84° NNE 02:46:03 10° ESE daylight
11 Dec - 04:34:58 10° WNW 04:45:36 32° SW 04:52:38 10° SSE daylight
11 Dec - 15:39:19 10° S 15:46:24 26° SE 15:56:30 10° E visible
11 Dec - 17:45:13 10° SW 17:56:00 83° SSE 18:12:53 10° ENE night (unlit)
11 Dec - 19:55:33 10° W 20:09:19 54° NNW 20:26:52 10° ENE visible
11 Dec - 22:09:15 10° WNW 22:25:23 44° N 22:41:01 10° ENE visible
12 Dec - 00:23:45 10° WNW 00:41:13 56° NNE 00:54:09 10° E visible
12 Dec - 02:37:56 10° WNW 02:54:01 78° SW 03:03:57 10° SE daylight
12 Dec - 04:54:48 10° W 05:03:06 21° SW 05:09:09 10° S daylight
12 Dec - 15:56:05 10° SSW 16:03:56 38° SE 16:16:03 10° ENE visible
12 Dec - 18:03:12 10° WSW 18:14:12 80° NNW 18:31:17 10° ENE night (unlit)
12 Dec - 20:14:20 10° W 20:28:17 49° NNW 20:45:27 10° ENE visible
12 Dec - 22:28:10 10° WNW 22:44:35 45° N 22:59:59 10° ENE visible
13 Dec - 00:42:11 10° WNW 00:59:56 65° NNE 01:12:42 10° ESE visible
13 Dec - 02:56:31 10° WNW 03:11:55 60° SW 03:21:35 10° SE daylight
13 Dec - 05:16:08 10° WSW 05:20:37 13° SW 05:24:25 10° SSW daylight
13 Dec - 16:13:16 10° SW 16:21:33 52° SE 16:35:04 10° ENE visible
13 Dec - 18:21:25 10° WSW 18:32:38 67° NNW 18:49:40 10° ENE visible
13 Dec - 20:33:12 10° WNW 20:47:22 45° N 21:04:14 10° ENE visible
13 Dec - 22:46:53 10° WNW 23:03:44 48° NNE 23:18:58 10° E visible
14 Dec - 01:00:32 10° WNW 01:18:28 77° NNE 01:31:02 10° ESE daylight
14 Dec - 03:15:23 10° WNW 03:29:38 45° SW 03:38:55 10° SSE daylight
14 Dec - 14:26:50 10° SSE 14:30:59 15° SE 14:36:12 10° E visible
14 Dec - 16:30:48 10° SW 16:39:20 71° SE 16:53:44 10° ENE visible
14 Dec - 18:39:51 10° W 18:51:16 56° NNW 19:08:06 10° ENE visible
14 Dec - 20:52:05 10° WNW 21:06:32 43° N 21:23:11 10° ENE visible
14 Dec - 23:05:26 10° WNW 23:22:44 53° NNE 23:37:53 10° E visible
